TimeEDT,TemperatureF,Dew PointF,Humidity,Sea Level PressureIn,VisibilityMPH,Wind Direction,Wind SpeedMPH,Gust SpeedMPH,PrecipitationIn,Events,Conditions,WindDirDegrees,DateUTC
12:53 AM,48.9,36.0,61,29.86,10.0,South,5.8,-,0.00,Rain,Light Rain,190,2013-03-31 04:53:00
1:53 AM,48.0,36.0,63,29.77,10.0,South,5.8,-,0.00,,Overcast,180,2013-03-31 05:53:00
2:53 AM,48.9,36.0,61,29.79,10.0,SSW,6.9,-,N/A,,Overcast,200,2013-03-31 06:53:00
3:53 AM,50.0,37.9,63,29.71,10.0,SW,12.7,-,0.00,Rain,Light Rain,220,2013-03-31 07:53:00
4:49 AM,48.2,39.2,71,29.75,6.0,SW,15.0,-,0.02,Rain,Light Rain,220,2013-03-31 08:49:00
4:53 AM,48.0,41.0,77,29.69,5.0,SW,16.1,-,0.03,Rain,Light Rain,220,2013-03-31 08:53:00
5:00 AM,48.2,41.0,76,29.74,6.0,SW,16.1,-,0.00,Rain,Light Rain,220,2013-03-31 09:00:00
5:12 AM,48.2,41.0,76,29.74,8.0,SW,16.1,-,0.00,,Overcast,220,2013-03-31 09:12:00
5:53 AM,44.1,39.9,85,29.68,3.0,WSW,11.5,-,0.00,,Overcast,250,2013-03-31 09:53:00
6:03 AM,44.6,39.2,81,29.73,2.5,WSW,10.4,-,N/A,,Overcast,250,2013-03-31 10:03:00
6:16 AM,44.6,39.2,81,29.73,2.0,West,11.5,-,N/A,,Overcast,260,2013-03-31 10:16:00
6:24 AM,44.6,39.2,81,29.73,1.8,WSW,9.2,-,N/A,,Overcast,250,2013-03-31 10:24:00
6:32 AM,44.6,39.2,81,29.73,2.5,WSW,11.5,-,N/A,,Overcast,250,2013-03-31 10:32:00
6:39 AM,44.6,39.2,81,29.73,3.0,West,10.4,-,N/A,,Overcast,260,2013-03-31 10:39:00
6:50 AM,44.6,39.2,81,29.73,4.0,West,9.2,-,N/A,,Overcast,260,2013-03-31 10:50:00
6:53 AM,44.1,39.9,85,29.74,4.0,West,10.4,-,N/A,,Overcast,270,2013-03-31 10:53:00
7:04 AM,44.6,39.2,81,29.73,4.0,West,9.2,-,N/A,,Overcast,270,2013-03-31 11:04:00
7:53 AM,43.0,39.0,86,29.75,3.0,West,5.8,-,N/A,,Overcast,280,2013-03-31 11:53:00
8:18 AM,42.8,39.2,87,29.74,3.0,West,3.5,-,N/A,,Overcast,280,2013-03-31 12:18:00
8:38 AM,42.8,37.4,81,29.74,5.0,West,8.1,-,N/A,,Haze,270,2013-03-31 12:38:00
8:53 AM,43.0,37.9,82,29.75,6.0,West,6.9,-,N/A,,Haze,270,2013-03-31 12:53:00
9:19 AM,42.8,37.4,81,29.74,8.0,WNW,6.9,-,N/A,,Overcast,290,2013-03-31 13:19:00
9:53 AM,44.1,37.9,79,29.75,8.0,WNW,11.5,-,N/A,,Scattered Clouds,300,2013-03-31 13:53:00
10:00 AM,44.6,37.4,76,29.74,8.0,West,11.5,-,N/A,,Scattered Clouds,280,2013-03-31 14:00:00
10:16 AM,42.8,37.4,81,29.74,8.0,West,9.2,-,N/A,,Mostly Cloudy,280,2013-03-31 14:16:00
10:23 AM,42.8,37.4,81,29.74,8.0,West,10.4,-,N/A,,Mostly Cloudy,270,2013-03-31 14:23:00
10:53 AM,41.0,37.0,86,29.75,5.0,West,10.4,-,N/A,,Overcast,280,2013-03-31 14:53:00
11:53 AM,42.1,37.0,82,29.75,4.0,WSW,13.8,-,N/A,,Haze,250,2013-03-31 15:53:00
12:34 PM,41.0,35.6,81,29.75,2.5,West,9.2,-,N/A,,Haze,260,2013-03-31 16:34:00
12:53 PM,41.0,37.0,86,29.76,2.5,WSW,11.5,-,N/A,,Overcast,240,2013-03-31 16:53:00
1:19 PM,41.0,37.4,87,29.74,3.0,SW,12.7,-,N/A,,Overcast,230,2013-03-31 17:19:00
1:53 PM,42.1,37.0,82,29.74,4.0,WSW,11.5,-,N/A,,Haze,250,2013-03-31 17:53:00
2:46 PM,48.2,39.2,71,29.71,7.0,WSW,16.1,21.9,N/A,,Overcast,250,2013-03-31 18:46:00
2:53 PM,48.0,39.0,71,29.72,7.0,WSW,16.1,21.9,N/A,,Overcast,250,2013-03-31 18:53:00
3:24 PM,50.0,39.2,66,29.70,9.0,WSW,16.1,23.0,N/A,,Scattered Clouds,240,2013-03-31 19:24:00
3:53 PM,50.0,37.9,63,29.70,10.0,WSW,15.0,21.9,N/A,,Overcast,240,2013-03-31 19:53:00
4:53 PM,48.9,37.9,66,29.70,10.0,West,15.0,-,N/A,,Overcast,270,2013-03-31 20:53:00
5:53 PM,48.9,37.9,66,29.70,10.0,West,6.9,-,N/A,,Clear,280,2013-03-31 21:53:00
6:53 PM,46.0,34.0,63,29.71,10.0,WNW,8.1,-,N/A,,Mostly Cloudy,300,2013-03-31 22:53:00
8:53 PM,41.0,32.0,70,29.77,10.0,WNW,9.2,-,N/A,,Overcast,300,2013-04-01 00:53:00
9:53 PM,39.9,32.0,73,29.79,10.0,WNW,11.5,19.6,N/A,,Overcast,290,2013-04-01 01:53:00
10:53 PM,39.9,28.9,65,29.81,10.0,NW,16.1,25.3,N/A,,Overcast,310,2013-04-01 02:53:00
11:53 PM,39.0,30.0,70,29.82,10.0,WNW,11.5,21.9,N/A,,Overcast,300,2013-04-01 03:53:00